This is the latest recevied weather packets stored in our database for station/object K7KAZ. If no packets are shown the sender has not sent any weather packets the latest 10 day(s).
| Time | Temp. | Humidity | Pressure | Rain* | Wind** | Luminosity | Snow |
|---|---|---|---|---|---|---|---|
| 1777940234 | 23.89° C | 39% | 1013.7 hPa | 0 mm | - | 128 W/m² | - |
| 1777939932 | 23.89° C | 39% | 1013.9 hPa | 0 mm | - | 135 W/m² | - |
| 1777939629 | 23.89° C | 39% | 1013.9 hPa | 0 mm | - | 159 W/m² | - |
| 1777939326 | 23.89° C | 39% | 1013.9 hPa | 0 mm | - | 169 W/m² | - |
| 1777939023 | 23.89° C | 37% | 1014.1 hPa | 0 mm | - | 171 W/m² | - |
| 1777938719 | 23.89° C | 38% | 1013.8 hPa | 0 mm | - | 177 W/m² | - |
| 1777938416 | 23.89° C | 40% | 1013.8 hPa | 0 mm | - | 187 W/m² | - |
| 1777938113 | 23.89° C | 40% | 1013.8 hPa | 0 mm | - | 192 W/m² | - |
| 1777937809 | 23.89° C | 40% | 1013.9 hPa | 0 mm | - | 220 W/m² | - |
| 1777937505 | 23.89° C | 39% | 1013.8 hPa | 0 mm | - | 226 W/m² | - |
| 1777937203 | 23.89° C | 38% | 1013.8 hPa | 0 mm | - | 257 W/m² | - |
| 1777936900 | 24.44° C | 38% | 1013.9 hPa | 0 mm | - | 276 W/m² | - |
| 1777936597 | 23.89° C | 39% | 1013.9 hPa | 0 mm | - | 253 W/m² | - |
| 1777936293 | 23.89° C | 39% | 1013.9 hPa | 0 mm | - | 240 W/m² | - |
| 1777935989 | 23.89° C | 40% | 1013.9 hPa | 0 mm | - | 218 W/m² | - |
| 1777935688 | 24.44° C | 38% | 1013.8 hPa | 0 mm | - | 219 W/m² | - |
| 1777935386 | 23.89° C | 39% | 1013.8 hPa | 0 mm | - | 218 W/m² | - |
| 1777935082 | 23.89° C | 40% | 1013.9 hPa | 0 mm | - | 254 W/m² | - |
| 1777934778 | 23.89° C | 40% | 1013.9 hPa | 0 mm | - | 276 W/m² | - |
| 1777934475 | 23.89° C | 39% | 1013.9 hPa | 0 mm | - | 313 W/m² | - |
| 1777934172 | 23.89° C | 40% | 1014.1 hPa | 0 mm | - | 367 W/m² | - |
| 1777933868 | 23.89° C | 39% | 1014.1 hPa | 0 mm | - | 291 W/m² | - |
| 1777933566 | 23.89° C | 41% | 1014.2 hPa | 0 mm | - | 246 W/m² | - |
| 1777933263 | 23.33° C | 41% | 1014.3 hPa | 0 mm | - | 358 W/m² | - |
| 1777932960 | 23.89° C | 41% | 1014.2 hPa | 0 mm | - | 344 W/m² | - |
* Rain latest hour (hover to see other rain measurements)
** Current wind speed in m/s (hover to see current wind gust speed)